Location: Altmatt
(47.1333°N, 8.7000°E)
Time: 03:02:41
(UTC+00:00)

Cosmos 1933 - Pass Details

Date: 13 July 2020
Orbit: 547 x 563 km, 82.5° (Epoch: 04 August)

Event Time Altitude Azimuth Distance (km) Brightness Sun altitude
Rises 21:33:48 0° 355° (N) 2,734 8.1 -16.3°
Reaches altitude 10° 21:36:02 10° 1° (N) 1,837 6.9 -16.5°
Maximum altitude 21:39:57 48° 77° (ENE) 729 3.8 -16.8°
Enters shadow 21:41:20 33° 129° (SE) 938 4.0 -16.9°
